OK,134,35,838,134,2014-10-01T01:45:00,0,28072608,203742
OK,134,35,838,134,2014-10-01T01:50:00,0,28073055,203742
OK,134,35,838,134,2014-10-01T01:55:00,0,28073504,203742
OK,134,35,838,134,2014-10-01T02:05:00,0,28074270,203742
OK,134,35,838,134,2014-10-01T02:15:00,0,28075159,203742
OK,134,35,838,134,2014-10-01T02:20:00,0,28075608,203742
OK,134,35,838,134,2014-10-01T02:25:00,0,28076002,203742
OK,134,35,838,134,2014-10-01T02:30:00,0,28076440,203742
OK,134,35,838,134,2014-10-01T02:35:00,0,28076889,203742
OK,134,35,838,134,2014-10-01T02:40:00,0,28077338,203742
OK,134,35,838,134,2014-10-01T02:50:00,0,28078190,203742
OK,134,35,838,134,2014-10-01T02:55:00,0,28078635,203742
OK,134,35,838,134,2014-10-01T03:00:00,0,28079084,203742
OK,134,35,838,134,2014-10-01T03:05:00,0,28079526,203742
OK,134,35,838,134,2014-10-01T03:10:00,0,28079975,203742
OK,134,35,838,134,2014-10-01T03:20:00,0,28080758,203742
OK,134,35,838,134,2014-10-01T03:25:00,0,28081207,203742
OK,134,35,838,134,2014-10-01T03:30:00,0,28081654,203742
OK,134,35,838,134,2014-10-01T03:35:00,0,28082103,203742
OK,134,35,838,134,2014-10-01T03:40:00,0,28082539,203742
OK,134,35,838,134,2014-10-01T03:45:00,0,28082969,203742
OK,134,35,838,134,2014-10-01T03:50:00,0,28083417,203742
OK,134,35,838,134,2014-10-01T03:55:00,0,28083866,203742
OK,134,35,838,134,2014-10-01T04:00:00,0,28084309,203742
OK,134,35,838,134,2014-10-01T04:05:00,0,28084737,203742
OK,134,35,838,134,2014-10-01T04:10:00,0,28085181,203742
OK,134,35,838,134,2014-10-01T04:15:00,0,28085627,203742
OK,134,35,838,134,2014-10-01T04:20:00,0,28086075,203742
OK,134,35,838,134,2014-10-01T04:25:00,0,28086518,203742
OK,134,35,838,134,2014-10-01T04:30:00,0,28086966,203742
OK,134,35,838,134,2014-10-01T04:35:00,0,28087411,203742
OK,134,35,838,134,2014-10-01T04:40:00,0,28087860,203742
OK,134,35,838,134,2014-10-01T04:45:00,0,28088288,203742
OK,134,35,838,134,2014-10-01T04:50:00,0,28088733,203742
OK,134,35,838,134,2014-10-01T04:55:00,0,28089165,203742
OK,134,35,838,134,2014-10-01T05:00:00,0,28089612,203742
OK,134,35,838,134,2014-10-01T05:05:00,0,28090061,203742
OK,134,35,838,134,2014-10-01T05:10:00,0,28090473,203742
OK,134,35,838,134,2014-10-01T05:15:00,0,28090854,203742
OK,134,35,838,134,2014-10-01T05:20:00,0,28091303,203742
OK,134,35,838,134,2014-10-01T05:25:00,0,28091723,203742
OK,134,35,838,134,2014-10-01T05:30:00,0,28092169,203742
OK,134,35,838,134,2014-10-01T05:35:00,0,28092614,203742
OK,134,35,838,134,2014-10-01T05:40:00,0,28093055,203742
OK,161,29,838,161,2014-10-01T05:45:00,2,28093485,203742
OK,161,29,838,161,2014-10-01T05:50:00,2,28093934,203742
OK,161,29,838,161,2014-10-01T05:55:00,0,28094349,203742
OK,161,29,838,161,2014-10-01T06:00:00,0,28094790,203742
OK,161,29,838,161,2014-10-01T06:05:00,0,28095237,203742
OK,161,29,838,161,2014-10-01T06:10:00,0,28095686,203742
OK,161,29,838,161,2014-10-01T06:20:00,0,28096548,203742
OK,161,29,838,161,2014-10-01T06:25:00,0,28096985,203742
OK,161,29,838,161,2014-10-01T06:30:00,0,28097431,203742
OK,161,29,838,161,2014-10-01T06:35:00,0,28097880,203742
OK,161,29,838,161,2014-10-01T06:40:00,0,28098319,203742
OK,161,29,838,161,2014-10-01T06:45:00,0,28098762,203742
OK,161,29,838,161,2014-10-01T06:50:00,0,28099209,203742
OK,161,29,838,161,2014-10-01T07:00:00,0,28100001,203742
OK,107,44,838,107,2014-10-01T07:10:00,1,28100757,203742
OK,107,44,838,107,2014-10-01T07:20:00,0,28101577,203742
OK,107,44,838,107,2014-10-01T07:25:00,0,28102014,203742
OK,107,44,838,107,2014-10-01T07:30:00,0,28102462,203742
OK,107,44,838,107,2014-10-01T07:35:00,0,28102894,203742
OK,107,44,838,107,2014-10-01T07:40:00,0,28103336,203742
OK,107,44,838,107,2014-10-01T07:45:00,0,28103782,203742
OK,107,44,838,107,2014-10-01T07:50:00,0,28104226,203742
OK,107,44,838,107,2014-10-01T07:55:00,0,28104668,203742
OK,107,44,838,107,2014-10-01T08:00:00,0,28105112,203742
OK,107,44,838,107,2014-10-01T08:05:00,0,28105554,203742
OK,107,44,838,107,2014-10-01T08:10:00,0,28106001,203742
OK,107,44,838,107,2014-10-01T08:15:00,0,28106439,203742
OK,107,44,838,107,2014-10-01T08:20:00,0,28107276,203742
OK,107,44,838,107,2014-10-01T08:30:00,0,28107725,203742
OK,107,44,838,107,2014-10-01T08:35:00,0,28108164,203742
OK,107,44,838,107,2014-10-01T08:40:00,0,28108613,203742
OK,107,44,838,107,2014-10-01T08:45:00,0,28109043,203742
OK,107,44,838,107,2014-10-01T08:50:00,0,28109490,203742
OK,134,35,838,134,2014-10-01T09:00:00,2,28110282,203742
OK,134,35,838,134,2014-10-01T09:10:00,0,28111154,203742
OK,134,35,838,134,2014-10-01T09:20:00,0,28112032,203742
OK,134,35,838,134,2014-10-01T09:30:00,0,28112822,203742
OK,298,15,838,298,2014-10-01T09:35:00,1,28113248,203742
OK,298,15,838,298,2014-10-01T09:40:00,0,28113695,203742
OK,298,15,838,298,2014-10-01T09:50:00,0,28114576,203742
OK,298,15,838,298,2014-10-01T10:00:00,0,28115379,203742
OK,109,43,838,109,2014-10-01T10:05:00,1,28115793,203742
OK,109,43,838,109,2014-10-01T10:10:00,1,28116240,203742
OK,109,43,838,109,2014-10-01T10:15:00,0,28116650,203742
OK,109,43,838,109,2014-10-01T10:20:00,0,28117097,203742
OK,109,43,838,109,2014-10-01T10:25:00,0,28117523,203742
OK,134,35,838,134,2014-10-01T10:30:00,2,28117971,203742
OK,134,35,838,134,2014-10-01T10:35:00,2,28118416,203742
OK,134,35,838,134,2014-10-01T10:40:00,0,28118863,203742
OK,134,35,838,134,2014-10-01T10:45:00,0,28119307,203742
OK,134,35,838,134,2014-10-01T10:50:00,0,28119755,203742
OK,134,35,838,134,2014-10-01T10:55:00,0,28120203,203742
OK,134,35,838,134,2014-10-01T11:00:00,0,28120652,203742
OK,276,17,838,276,2014-10-01T11:10:00,1,28121484,203742
OK,276,17,838,276,2014-10-01T11:15:00,0,28121923,203742
OK,84,56,838,84,2014-10-01T11:20:00,1,28122371,203742
OK,84,56,838,84,2014-10-01T11:25:00,1,28122813,203742
OK,84,56,838,84,2014-10-01T11:30:00,0,28123261,203742
OK,84,56,838,84,2014-10-01T11:40:00,0,28124142,203742
OK,84,56,838,84,2014-10-01T11:50:00,0,28124993,203742
OK,84,56,838,84,2014-10-01T11:55:00,0,28125422,203742
OK,84,56,838,84,2014-10-01T12:00:00,0,28125871,203742
OK,84,56,838,84,2014-10-01T12:05:00,0,28126672,203742
OK,84,56,838,84,2014-10-01T12:10:00,0,28127121,203742
OK,84,56,838,84,2014-10-01T12:20:00,0,28127570,203742
OK,84,56,838,84,2014-10-01T12:30:00,0,28128447,203742
OK,84,56,838,84,2014-10-01T12:35:00,0,28129331,203742
OK,84,56,838,84,2014-10-01T12:40:00,0,28129766,203742
OK,84,56,838,84,2014-10-01T12:50:00,0,28130214,203742
OK,84,56,838,84,2014-10-01T13:00:00,0,28131091,203742
OK,84,56,838,84,2014-10-01T13:05:00,0,28131977,203742
OK,84,56,838,84,2014-10-01T13:10:00,0,28132416,203742
OK,84,56,838,84,2014-10-01T13:15:00,0,28132862,203742
OK,84,56,838,84,2014-10-01T13:20:00,0,28133300,203742
OK,84,56,838,84,2014-10-01T13:25:00,0,28133749,203742
OK,84,56,838,84,2014-10-01T13:30:00,0,28134188,203742
OK,84,56,838,84,2014-10-01T13:35:00,0,28134637,203742
OK,84,56,838,84,2014-10-01T13:40:00,0,28135057,203742
OK,84,56,838,84,2014-10-01T13:45:00,0,28135505,203742
OK,84,56,838,84,2014-10-01T13:50:00,0,28135942,203742
OK,84,56,838,84,2014-10-01T13:55:00,0,28136391,203742
OK,84,56,838,84,2014-10-01T14:00:00,0,28136831,203742
OK,84,56,838,84,2014-10-01T14:10:00,0,28137280,203742
OK,108,43,838,108,2014-10-01T14:15:00,2,28138163,203742
OK,108,43,838,108,2014-10-01T14:20:00,2,28138592,203742
OK,108,43,838,108,2014-10-01T14:25:00,0,28139040,203742
OK,108,43,838,108,2014-10-01T14:30:00,0,28139452,203742
OK,83,56,838,83,2014-10-01T14:35:00,1,28139900,203742
OK,83,56,838,83,2014-10-01T14:40:00,0,28140343,203742
OK,83,56,838,83,2014-10-01T14:50:00,0,28140791,203742
OK,83,56,838,83,2014-10-01T15:00:00,0,28141666,203742
OK,83,56,838,83,2014-10-01T15:10:00,0,28142543,203742
OK,83,56,838,83,2014-10-01T15:20:00,0,28143419,203742
OK,83,56,838,83,2014-10-01T15:25:00,0,28143867,203742
OK,83,56,838,83,2014-10-01T15:30:00,0,28144316,203742
OK,83,56,838,83,2014-10-01T15:35:00,0,28145151,203742
OK,83,56,838,83,2014-10-01T15:40:00,0,28145600,203742
OK,83,56,838,83,2014-10-01T15:50:00,0,28146049,203742
OK,83,56,838,83,2014-10-01T15:55:00,0,28146498,203742
OK,89,52,838,89,2014-10-01T16:00:00,1,28146910,203742
OK,89,52,838,89,2014-10-01T16:05:00,1,28147350,203742
OK,89,52,838,89,2014-10-01T16:10:00,0,28147799,203742
OK,89,52,838,89,2014-10-01T16:20:00,0,28148649,203742
OK,89,52,838,89,2014-10-01T16:30:00,0,28149537,203742
OK,89,52,838,89,2014-10-01T16:40:00,0,28150412,203742
OK,89,52,838,89,2014-10-01T16:50:00,0,28151279,203742
OK,89,52,838,89,2014-10-01T16:55:00,0,28151728,203742
OK,89,52,838,89,2014-10-01T17:00:00,0,28152177,203742
OK,89,52,838,89,2014-10-01T17:05:00,0,28152623,203742
OK,89,52,838,89,2014-10-01T17:10:00,0,28153070,203742
OK,89,52,838,89,2014-10-01T17:20:00,0,28153519,203742
OK,89,52,838,89,2014-10-01T17:25:00,0,28153932,203742
OK,89,52,838,89,2014-10-01T17:30:00,0,28154378,203742
OK,89,52,838,89,2014-10-01T17:35:00,0,28154820,203742
OK,89,52,838,89,2014-10-01T17:40:00,0,28155268,203742
OK,89,52,838,89,2014-10-01T17:50:00,0,28156135,203742
OK,89,52,838,89,2014-10-01T17:55:00,0,28156584,203742
OK,89,52,838,89,2014-10-01T18:00:00,0,28157022,203742
OK,89,52,838,89,2014-10-01T18:10:00,0,28157900,203742
OK,86,54,838,86,2014-10-01T18:15:00,1,28158344,203742
OK,86,54,838,86,2014-10-01T18:20:00,1,28159236,203742
OK,86,54,838,86,2014-10-01T18:25:00,0,28159572,203742
OK,86,54,838,86,2014-10-01T18:35:00,0,28160020,203742
OK,86,54,838,86,2014-10-01T18:40:00,0,28160469,203742
OK,86,54,838,86,2014-10-01T18:45:00,0,28160908,203742
OK,86,54,838,86,2014-10-01T18:50:00,0,28161356,203742
OK,86,54,838,86,2014-10-01T19:00:00,0,28162222,203742
OK,86,54,838,86,2014-10-01T19:05:00,0,28162624,203742
OK,86,54,838,86,2014-10-01T19:10:00,0,28163503,203742
OK,86,54,838,86,2014-10-01T19:20:00,0,28163952,203742
OK,86,54,838,86,2014-10-01T19:30:00,0,28164832,203742
OK,86,54,838,86,2014-10-01T19:35:00,0,28165705,203742
OK,86,54,838,86,2014-10-01T19:40:00,0,28166146,203742
OK,86,54,838,86,2014-10-01T19:45:00,0,28166508,203742
OK,86,54,838,86,2014-10-01T19:50:00,0,28166957,203742
OK,86,54,838,86,2014-10-01T19:55:00,0,28167386,203742
OK,86,54,838,86,2014-10-01T20:00:00,0,28167820,203742
OK,86,54,838,86,2014-10-01T20:05:00,0,28168268,203742
OK,86,54,838,86,2014-10-01T20:10:00,0,28168713,203742
OK,86,54,838,86,2014-10-01T20:15:00,0,28169162,203742
OK,86,54,838,86,2014-10-01T20:20:00,0,28169610,203742
OK,86,54,838,86,2014-10-01T20:25:00,0,28170036,203742
OK,86,54,838,86,2014-10-01T20:30:00,0,28170481,203742
OK,86,54,838,86,2014-10-01T20:35:00,0,28170929,203742
OK,86,54,838,86,2014-10-01T20:40:00,0,28171366,203742
OK,86,54,838,86,2014-10-01T20:45:00,0,28171812,203742
OK,86,54,838,86,2014-10-01T20:50:00,0,28172260,203742
OK,86,54,838,86,2014-10-01T20:55:00,0,28172706,203742
OK,86,54,838,86,2014-10-01T21:00:00,0,28173152,203742
OK,86,54,838,86,2014-10-01T21:05:00,0,28173601,203742
OK,86,54,838,86,2014-10-01T21:10:00,0,28174042,203742
OK,86,54,838,86,2014-10-01T21:15:00,0,28174491,203742
OK,86,54,838,86,2014-10-01T21:20:00,0,28174917,203742
OK,86,54,838,86,2014-10-01T21:25:00,0,28175313,203742
OK,86,54,838,86,2014-10-01T21:30:00,0,28175762,203742
OK,86,54,838,86,2014-10-01T21:35:00,0,28176211,203742
OK,86,54,838,86,2014-10-01T21:45:00,0,28176660,203742
OK,86,54,838,86,2014-10-01T21:50:00,0,28177456,203742
OK,86,54,838,86,2014-10-01T21:55:00,0,28177902,203742
OK,86,54,838,86,2014-10-01T22:00:00,0,28178351,203742
OK,86,54,838,86,2014-10-01T22:10:00,0,28178798,203742
OK,86,54,838,86,2014-10-01T22:15:00,0,28179675,203742
OK,86,54,838,86,2014-10-01T22:25:00,0,28180122,203742
OK,86,54,838,86,2014-10-01T22:30:00,0,28180969,203742
OK,86,54,838,86,2014-10-01T22:35:00,0,28181393,203742
OK,86,54,838,86,2014-10-01T22:40:00,0,28181841,203742
OK,86,54,838,86,2014-10-01T22:45:00,0,28182288,203742
OK,86,54,838,86,2014-10-01T22:50:00,0,28182737,203742
OK,86,54,838,86,2014-10-01T22:55:00,0,28183154,203742
OK,86,54,838,86,2014-10-01T23:00:00,0,28183587,203742
OK,86,54,838,86,2014-10-01T23:05:00,0,28184032,203742
OK,86,54,838,86,2014-10-01T23:10:00,0,28184481,203742
OK,86,54,838,86,2014-10-01T23:15:00,0,28184916,203742
OK,86,54,838,86,2014-10-01T23:20:00,0,28185364,203742
OK,86,54,838,86,2014-10-01T23:25:00,0,28185795,203742
OK,86,54,838,86,2014-10-01T23:30:00,0,28186187,203742
OK,86,54,838,86,2014-10-01T23:35:00,0,28186636,203742
OK,86,54,838,86,2014-10-01T23:40:00,0,28187034,203742
OK,86,54,838,86,2014-10-01T23:45:00,0,28187476,203742
OK,86,54,838,86,2014-10-01T23:50:00,0,28187925,203742
OK,86,54,838,86,2014-10-01T23:55:00,0,28188366,203742
OK,86,54,838,86,2014-10-02T00:00:00,0,28188802,203742
OK,86,54,838,86,2014-10-02T00:10:00,0,28189251,203742
OK,86,54,838,86,2014-10-02T00:20:00,0,28190122,203742
OK,86,54,838,86,2014-10-02T00:25:00,0,28190924,203742
OK,86,54,838,86,2014-10-02T00:35:00,0,28191373,203742
OK,86,54,838,86,2014-10-02T00:45:00,0,28192128,203742
OK,86,54,838,86,2014-10-02T00:50:00,0,28193005,203742
OK,86,54,838,86,2014-10-02T00:55:00,0,28193372,203742
OK,86,54,838,86,2014-10-02T01:00:00,0,28193821,203742
OK,86,54,838,86,2014-10-02T01:10:00,0,28194270,203742
OK,86,54,838,86,2014-10-02T01:15:00,0,28194719,203742
OK,86,54,838,86,2014-10-02T01:20:00,0,28195404,203742
OK,86,54,838,86,2014-10-02T01:30:00,0,28195853,203742
OK,86,54,838,86,2014-10-02T01:40:00,0,28196586,203742
OK,86,54,838,86,2014-10-02T01:45:00,0,28197458,203742
OK,86,54,838,86,2014-10-02T01:55:00,0,28197906,203742
OK,86,54,838,86,2014-10-02T02:00:00,0,28198354,203742
OK,86,54,838,86,2014-10-02T02:05:00,0,28198803,203742
OK,86,54,838,86,2014-10-02T02:10:00,0,28199617,203742
OK,86,54,838,86,2014-10-02T02:15:00,0,28200059,203742
OK,86,54,838,86,2014-10-02T02:20:00,0,28200502,203742
OK,86,54,838,86,2014-10-02T02:25:00,0,28200951,203742
OK,86,54,838,86,2014-10-02T02:30:00,0,28201382,203742
OK,86,54,838,86,2014-10-02T02:45:00,0,28202280,203742
OK,86,54,838,86,2014-10-02T02:50:00,0,28202722,203742
OK,86,54,838,86,2014-10-02T02:55:00,0,28203170,203742
OK,86,54,838,86,2014-10-02T03:00:00,0,28203605,203742
OK,86,54,838,86,2014-10-02T03:10:00,0,28204054,203742
OK,86,54,838,86,2014-10-02T03:25:00,0,28204503,203742
OK,86,54,838,86,2014-10-02T03:35:00,0,28204952,203742
OK,86,54,838,86,2014-10-02T03:40:00,0,28205827,203742
OK,86,54,838,86,2014-10-02T03:45:00,0,28206210,203742
OK,86,54,838,86,2014-10-02T03:55:00,0,28206659,203742
OK,86,54,838,86,2014-10-02T04:00:00,0,28207108,203742
OK,86,54,838,86,2014-10-02T04:10:00,0,28207976,203742
OK,86,54,838,86,2014-10-02T04:20:00,0,28208852,203742
OK,86,54,838,86,2014-10-02T04:30:00,0,28209739,203742
OK,86,54,838,86,2014-10-02T04:35:00,0,28210163,203742
OK,86,54,838,86,2014-10-02T04:40:00,0,28210611,203742
OK,86,54,838,86,2014-10-02T04:45:00,0,28211480,203742
OK,86,54,838,86,2014-10-02T04:50:00,0,28211858,203742
OK,86,54,838,86,2014-10-02T05:00:00,0,28212307,203742
OK,86,54,838,86,2014-10-02T05:05:00,0,28212736,203742
OK,86,54,838,86,2014-10-02T05:10:00,0,28213185,203742
OK,86,54,838,86,2014-10-02T05:15:00,0,28213624,203742
OK,86,54,838,86,2014-10-02T05:20:00,0,28214072,203742
OK,86,54,838,86,2014-10-02T05:25:00,0,28214488,203742
OK,86,54,838,86,2014-10-02T05:30:00,0,28214934,203742
OK,86,54,838,86,2014-10-02T05:40:00,0,28215799,203742
OK,86,54,838,86,2014-10-02T05:45:00,0,28216199,203742
OK,86,54,838,86,2014-10-02T05:50:00,0,28216578,203742
OK,86,54,838,86,2014-10-02T05:55:00,0,28217025,203742
OK,86,54,838,86,2014-10-02T06:00:00,0,28217474,203742
OK,86,54,838,86,2014-10-02T06:05:00,0,28217913,203742
OK,86,54,838,86,2014-10-02T06:10:00,0,28218362,203742
OK,86,54,838,86,2014-10-02T06:20:00,0,28219231,203742
OK,86,54,838,86,2014-10-02T06:30:00,0,28220053,203742
OK,86,54,838,86,2014-10-02T06:40:00,0,28220936,203742
OK,86,54,838,86,2014-10-02T06:45:00,0,28221603,203742
OK,86,54,838,86,2014-10-02T07:00:00,0,28222197,203742
OK,86,54,838,86,2014-10-02T07:10:00,0,28222646,203742
OK,86,54,838,86,2014-10-02T07:15:00,0,28223513,203742
OK,86,54,838,86,2014-10-02T07:20:00,0,28223960,203742
OK,86,54,838,86,2014-10-02T07:25:00,0,28224315,203742
OK,86,54,838,86,2014-10-02T07:30:00,0,28224764,203742
OK,86,54,838,86,2014-10-02T07:40:00,0,28225213,203742
OK,86,54,838,86,2014-10-02T07:50:00,0,28225984,203742
OK,86,54,838,86,2014-10-02T07:55:00,0,28226425,203742
OK,86,54,838,86,2014-10-02T08:00:00,0,28226874,203742
OK,86,54,838,86,2014-10-02T08:10:00,0,28227738,203742
OK,86,54,838,86,2014-10-02T08:20:00,0,28228546,203742
OK,86,54,838,86,2014-10-02T08:25:00,0,28228958,203742
OK,86,54,838,86,2014-10-02T08:30:00,0,28229405,203742
OK,86,54,838,86,2014-10-02T08:40:00,0,28230204,203742
OK,86,54,838,86,2014-10-02T08:50:00,0,28231019,203742
OK,86,54,838,86,2014-10-02T08:55:00,0,28231443,203742
OK,86,54,838,86,2014-10-02T09:00:00,0,28231891,203742
OK,86,54,838,86,2014-10-02T09:10:00,0,28232682,203742
OK,86,54,838,86,2014-10-02T09:20:00,0,28233131,203742
OK,86,54,838,86,2014-10-02T09:25:00,0,28233556,203742
OK,86,54,838,86,2014-10-02T09:30:00,0,28234004,203742
OK,86,54,838,86,2014-10-02T09:35:00,0,28234786,203742
OK,86,54,838,86,2014-10-02T09:40:00,0,28235213,203742
OK,86,54,838,86,2014-10-02T09:50:00,0,28235662,203742
OK,86,54,838,86,2014-10-02T09:55:00,0,28236106,203742
OK,86,54,838,86,2014-10-02T10:00:00,0,28236552,203742
OK,86,54,838,86,2014-10-02T10:05:00,0,28237403,203742
OK,86,54,838,86,2014-10-02T10:15:00,0,28237851,203742
OK,86,54,838,86,2014-10-02T10:20:00,0,28238299,203742
OK,86,54,838,86,2014-10-02T10:25:00,0,28239188,203742
OK,86,54,838,86,2014-10-02T10:30:00,0,28239619,203742
OK,86,54,838,86,2014-10-02T10:40:00,0,28240067,203742
OK,86,54,838,86,2014-10-02T10:45:00,0,28240512,203742
OK,86,54,838,86,2014-10-02T10:50:00,0,28240960,203742
OK,86,54,838,86,2014-10-02T10:55:00,0,28241393,203742
OK,86,54,838,86,2014-10-02T11:00:00,0,28241840,203742
OK,86,54,838,86,2014-10-02T11:10:00,0,28242685,203742
OK,86,54,838,86,2014-10-02T11:15:00,0,28243134,203742
OK,86,54,838,86,2014-10-02T11:20:00,0,28243534,203742
OK,86,54,838,86,2014-10-02T11:25:00,0,28244327,203742
OK,86,54,838,86,2014-10-02T11:30:00,0,28244775,203742
OK,86,54,838,86,2014-10-02T11:40:00,0,28245224,203742
OK,86,54,838,86,2014-10-02T11:45:00,0,28246079,203742
OK,86,54,838,86,2014-10-02T11:50:00,0,28246516,203742
OK,86,54,838,86,2014-10-02T11:55:00,0,28246965,203742
OK,86,54,838,86,2014-10-02T12:05:00,0,28247411,203742
OK,86,54,838,86,2014-10-02T12:10:00,0,28248290,203742
OK,86,54,838,86,2014-10-02T12:20:00,0,28248738,203742
OK,86,54,838,86,2014-10-02T12:25:00,0,28249609,203742
OK,86,54,838,86,2014-10-02T12:30:00,0,28250028,203742
OK,86,54,838,86,2014-10-02T12:35:00,0,28250426,203742
OK,86,54,838,86,2014-10-02T12:45:00,0,28251206,203742
OK,86,54,838,86,2014-10-02T13:20:00,0,28251751,203742
OK,86,54,838,86,2014-10-02T13:30:00,0,28252335,203742
OK,86,54,838,86,2014-10-02T13:35:00,0,28252777,203742
OK,86,54,838,86,2014-10-02T13:40:00,0,28253194,203742
OK,86,54,838,86,2014-10-02T13:45:00,0,28253643,203742
OK,86,54,838,86,2014-10-02T13:50:00,0,28254049,203742
OK,86,54,838,86,2014-10-02T13:55:00,0,28254369,203742
OK,86,54,838,86,2014-10-02T14:10:00,0,28254946,203742
OK,86,54,838,86,2014-10-02T14:15:00,0,28255395,203742
OK,86,54,838,86,2014-10-02T14:20:00,0,28255823,203742
OK,86,54,838,86,2014-10-02T14:25:00,0,28256272,203742
OK,86,54,838,86,2014-10-02T14:30:00,0,28256700,203742
OK,86,54,838,86,2014-10-02T14:35:00,0,28257149,203742
OK,86,54,838,86,2014-10-02T14:40:00,0,28257590,203742
OK,95,49,838,95,2014-10-02T14:45:00,1,28258038,203742
OK,110,42,838,110,2014-10-02T14:50:00,2,28258471,203742
OK,125,37,838,125,2014-10-02T14:55:00,1,28258917,203742
OK,125,37,838,125,2014-10-02T15:00:00,0,28259366,203742
OK,125,37,838,125,2014-10-02T15:05:00,0,28259813,203742
OK,125,37,838,125,2014-10-02T15:10:00,0,28260246,203742
OK,125,37,838,125,2014-10-02T15:15:00,0,28260695,203742
OK,125,37,838,125,2014-10-02T15:20:00,0,28261135,203742
OK,125,37,838,125,2014-10-02T15:25:00,0,28261517,203742
OK,125,37,838,125,2014-10-02T15:30:00,0,28261947,203742
OK,125,37,838,125,2014-10-02T15:35:00,0,28262394,203742
OK,125,37,838,125,2014-10-02T15:40:00,0,28262840,203742
OK,125,37,838,125,2014-10-02T15:45:00,0,28263278,203742
OK,125,37,838,125,2014-10-02T15:50:00,0,28263719,203742
OK,125,37,838,125,2014-10-02T15:55:00,0,28264121,203742
OK,125,37,838,125,2014-10-02T16:00:00,0,28264570,203742
OK,125,37,838,125,2014-10-02T16:05:00,0,28265008,203742
OK,125,37,838,125,2014-10-02T16:10:00,0,28265448,203742
OK,125,37,838,125,2014-10-02T16:15:00,0,28265844,203742
OK,125,37,838,125,2014-10-02T16:20:00,0,28266293,203742
OK,125,37,838,125,2014-10-02T16:25:00,0,28266742,203742
OK,125,37,838,125,2014-10-02T16:30:00,0,28267065,203742
OK,125,37,838,125,2014-10-02T16:35:00,0,28267514,203742
OK,125,37,838,125,2014-10-02T16:40:00,0,28267963,203742
OK,125,37,838,125,2014-10-02T16:45:00,0,28268405,203742
OK,125,37,838,125,2014-10-02T16:50:00,0,28268854,203742
OK,125,37,838,125,2014-10-02T16:55:00,0,28269303,203742
OK,125,37,838,125,2014-10-02T17:00:00,0,28269738,203742
OK,125,37,838,125,2014-10-02T17:05:00,0,28270187,203742
OK,125,37,838,125,2014-10-02T17:10:00,0,28270621,203742
OK,125,37,838,125,2014-10-02T17:15:00,0,28271070,203742
OK,125,37,838,125,2014-10-02T17:20:00,0,28271500,203742
OK,125,37,838,125,2014-10-02T17:25:00,0,28271948,203742
OK,125,37,838,125,2014-10-02T17:30:00,0,28272384,203742
OK,125,37,838,125,2014-10-02T17:35:00,0,28272825,203742
OK,125,37,838,125,2014-10-02T17:40:00,0,28273273,203742
OK,125,37,838,125,2014-10-02T17:45:00,0,28273719,203742
OK,125,37,838,125,2014-10-02T17:55:00,0,28274168,203742
OK,117,40,838,117,2014-10-02T18:00:00,1,28274942,203742
OK,117,40,838,117,2014-10-02T18:05:00,0,28275381,203742
OK,117,40,838,117,2014-10-02T18:10:00,0,28275826,203742
OK,117,40,838,117,2014-10-02T18:15:00,0,28276272,203742
OK,117,40,838,117,2014-10-02T18:20:00,0,28276668,203742
OK,117,40,838,117,2014-10-02T18:30:00,0,28277117,203742
OK,117,40,838,117,2014-10-02T18:40:00,0,28277566,203742
OK,117,40,838,117,2014-10-02T18:45:00,0,28278363,203742
OK,117,40,838,117,2014-10-02T19:00:00,0,28278812,203742
OK,117,40,838,117,2014-10-02T19:05:00,0,28279261,203742
OK,117,40,838,117,2014-10-02T19:10:00,0,28279706,203742
OK,117,40,838,117,2014-10-02T19:15:00,0,28280147,203742
OK,117,40,838,117,2014-10-02T19:20:00,0,28280594,203742
OK,117,40,838,117,2014-10-02T19:25:00,0,28280998,203742
OK,117,40,838,117,2014-10-02T19:35:00,0,28281896,203742
OK,117,40,838,117,2014-10-02T19:40:00,0,28282327,203742
OK,117,40,838,117,2014-10-02T19:45:00,0,28282775,203742
OK,117,40,838,117,2014-10-02T19:50:00,0,28283223,203742
OK,117,40,838,117,2014-10-02T19:55:00,0,28283653,203742
OK,117,40,838,117,2014-10-02T20:00:00,0,28284023,203742
OK,117,40,838,117,2014-10-02T20:10:00,0,28284472,203742
OK,117,40,838,117,2014-10-02T20:15:00,0,28285255,203742
OK,117,40,838,117,2014-10-02T20:20:00,0,28285691,203742
OK,117,40,838,117,2014-10-02T20:25:00,0,28286106,203742
OK,117,40,838,117,2014-10-02T20:35:00,0,28286958,203742
OK,117,40,838,117,2014-10-02T20:40:00,0,28287389,203742
OK,117,40,838,117,2014-10-02T20:45:00,0,28287667,203742
OK,0,0,838,0,2014-10-03T22:35:00,0,28291669,203742
OK,0,0,838,0,2014-10-03T22:40:00,0,28292118,203742
OK,0,0,838,0,2014-10-03T22:45:00,0,28292567,203742
OK,0,0,838,0,2014-10-03T22:50:00,0,28293013,203742
OK,0,0,838,0,2014-10-03T22:55:00,0,28293462,203742
OK,0,0,838,0,2014-10-03T23:00:00,0,28293911,203742
OK,0,0,838,0,2014-10-03T23:05:00,0,28294340,203742
OK,0,0,838,0,2014-10-03T23:10:00,0,28294776,203742
OK,0,0,838,0,2014-10-03T23:15:00,0,28295216,203742
OK,0,0,838,0,2014-10-03T23:25:00,0,28295665,203742
OK,0,0,838,0,2014-10-03T23:30:00,0,28296108,203742
OK,0,0,838,0,2014-10-03T23:35:00,0,28296557,203742
OK,0,0,838,0,2014-10-03T23:40:00,0,28296960,203742
OK,0,0,838,0,2014-10-03T23:45:00,0,28297387,203742
OK,0,0,838,0,2014-10-03T23:50:00,0,28297836,203742